DW5868 Weather Reports


Display with metric or nautical units.
time (UTC)temp
F
wind
direction
speed
MPH
gust
MPH
rain 1hr
in
rain 24hr
in
rain mn
in
humidity
%
barometer
mb
20220525171533 68 138 2.0 4.0 0.00 0.00 0.00 26 1009.4
20220525170025 66 210 2.0 8.0 0.00 0.00 0.00 26 1009.5
20220525164512 66 46 3.0 5.0 0.00 0.00 0.00 24 1009.7
20220525163011 65 133 1.0 6.0 0.00 0.00 0.00 25 1009.7
20220525161512 65 189 2.0 6.0 0.00 0.00 0.00 24 1009.8
20220525160011 66 104 4.0 7.0 0.00 0.00 0.00 22 1009.8
20220525154509 64 45 1.0 4.0 0.00 0.00 0.00 24 1009.8
20220525153009 65 215 0.0 4.0 0.00 0.00 0.00 26 1009.8
20220525151508 66 123 0.0 2.0 0.00 0.00 0.00 24 1009.8
20220525150010 63 38 0.0 1.0 0.00 0.00 0.00 29 1009.9
20220525144546 62 71 0.0 2.0 0.00 0.00 0.00 30 1010.0
20220525143042 61 272 0.0 0.0 0.00 0.00 0.00 44 1010.0
20220525141524 54 271 0.0 1.0 0.00 0.00 0.00 48 1010.0
20220525140016 50 272 0.0 1.0 0.00 0.00 0.00 51 1010.0
20220525134606 47 272 1.0 2.0 0.00 0.00 0.00 54 1010.1
20220525133053 45 272 1.0 3.0 0.00 0.00 0.00 57 1010.0
20220525131550 42 277 2.0 3.0 0.00 0.00 0.00 60 1010.0
20220525130035 41 276 2.0 3.0 0.00 0.00 0.00 62 1009.9
20220525124516 41 276 2.0 3.0 0.00 0.00 0.00 62 1009.8
20220525123016 41 279 2.0 3.0 0.00 0.00 0.00 62 1009.8
20220525121601 41 277 3.0 3.0 0.00 0.00 0.00 61 1009.9
20220525120056 41 284 2.0 3.0 0.00 0.00 0.00 61 1009.8
20220525114538 41 273 2.0 3.0 0.00 0.00 0.00 61 1009.7
20220525113040 41 275 2.0 3.0 0.00 0.00 0.00 62 1009.6
20220525111519 41 279 3.0 4.0 0.00 0.00 0.00 62 1009.5
20220525110022 41 279 2.0 3.0 0.00 0.00 0.00 61 1009.5
20220525104618 41 276 2.0 3.0 0.00 0.00 0.00 61 1009.7
20220525103058 41 275 3.0 4.0 0.00 0.00 0.00 61 1009.6
20220525101601 42 273 2.0 3.0 0.00 0.00 0.00 59 1009.6
20220525100044 42 275 2.0 4.0 0.00 0.00 0.00 58 1009.4
20220525094546 43 276 2.0 3.0 0.00 0.00 0.00 57 1009.4
20220525093025 43 276 2.0 3.0 0.00 0.00 0.00 58 1009.5
20220525091521 43 276 2.0 3.0 0.00 0.00 0.00 56 1009.6
20220525090020 43 279 2.0 3.0 0.00 0.00 0.00 56 1009.6
20220525084523 44 277 2.0 3.0 0.00 0.00 0.00 54 1009.7
20220525083016 44 276 2.0 3.0 0.00 0.00 0.00 54 1009.9
20220525081514 44 275 2.0 3.0 0.00 0.00 0.00 54 1010.1
20220525080019 44 278 2.0 3.0 0.00 0.00 0.00 53 1010.2
20220525074511 45 275 2.0 3.0 0.00 0.00 0.00 54 1010.2
20220525073058 45 276 2.0 4.0 0.00 0.00 0.00 52 1010.4
20220525071557 45 254 2.0 4.0 0.00 0.00 0.00 53 1010.3
20220525070052 47 279 2.0 3.0 0.00 0.00 0.00 49 1010.4
20220525064601 47 275 1.0 3.0 0.00 0.00 0.00 49 1010.6
20220525063050 47 276 2.0 4.0 0.00 0.00 0.00 49 1010.5
20220525061553 47 273 0.0 3.0 0.00 0.00 0.00 47 1010.5
20220525060049 48 280 2.0 3.0 0.00 0.00 0.00 51 1010.4
20220525054607 48 275 2.0 3.0 0.00 0.00 0.00 51 1010.4
20220525053031 49 281 1.0 2.0 0.00 0.00 0.00 46 1010.5
20220525051539 51 281 2.0 3.0 0.00 0.00 0.00 44 1010.4
20220525050016 51 224 1.0 3.0 0.00 0.00 0.00 41 1010.4
20220525044512 53 278 1.0 3.0 0.00 0.00 0.00 39 1010.1
20220525043054 53 211 0.0 1.0 0.00 0.00 0.00 41 1010.0
20220525041554 54 194 0.0 0.0 0.00 0.00 0.00 43 1009.7
20220525040045 54 279 1.0 3.0 0.00 0.00 0.00 47 1009.4
20220525034558 56 221 0.0 0.0 0.00 0.00 0.00 42 1009.3
20220525033019 56 219 0.0 2.0 0.00 0.00 0.00 45 1009.0
20220525031525 58 252 0.0 1.0 0.00 0.00 0.00 43 1008.8
20220525030105 59 192 1.0 7.0 0.00 0.00 0.00 42 1008.6
20220525024559 60 259 3.0 14.0 0.00 0.00 0.00 41 1008.4
20220525023048 61 234 3.0 12.0 0.00 0.00 0.00 40 1008.1
20220525021540 62 152 3.0 9.0 0.00 0.00 0.00 39 1008.0
20220525020026 64 249 4.0 14.0 0.00 0.00 0.00 36 1007.9
20220525014521 65 59 4.0 12.0 0.00 0.00 0.00 35 1007.8
20220525013004 66 280 4.0 12.0 0.00 0.00 0.00 34 1007.6
20220525011509 67 206 4.0 13.0 0.00 0.00 0.00 34 1007.5
20220525010044 67 200 4.0 14.0 0.00 0.00 0.00 33 1007.5
20220525004550 68 278 5.0 16.0 0.00 0.00 0.00 32 1007.7
20220525003025 68 225 4.0 16.0 0.00 0.00 0.00 32 1007.7
20220525001524 69 192 3.0 15.0 0.00 0.00 0.00 31 1007.7
20220525000015 70 287 5.0 13.0 0.00 0.00 0.00 29 1007.7
20220524234506 70 244 2.0 10.0 0.00 0.00 0.00 29 1007.8
20220524233049 71 313 6.0 15.0 0.00 0.00 0.00 28 1007.9
20220524231548 71 308 4.0 16.0 0.00 0.00 0.00 27 1007.9
20220524230032 71 103 4.0 14.0 0.00 0.00 0.00 26 1007.9
20220524224529 70 240 3.0 16.0 0.00 0.00 0.00 27 1007.9
20220524223011 70 203 3.0 15.0 0.00 0.00 0.00 27 1007.8
20220524221515 71 252 6.0 15.0 0.00 0.00 0.00 25 1008.1
20220524220107 71 276 4.0 17.0 0.00 0.00 0.00 24 1008.1
20220524214555 71 196 3.0 16.0 0.00 0.00 0.00 24 1008.2
20220524213037 72 277 3.0 12.0 0.00 0.00 0.00 22 1008.3
20220524211537 71 194 7.0 14.0 0.00 0.00 0.00 21 1008.4
20220524210034 71 281 3.0 14.0 0.00 0.00 0.00 20 1008.5
20220524204533 72 271 4.0 10.0 0.00 0.00 0.00 18 1008.6
20220524203033 71 230 5.0 17.0 0.00 0.00 0.00 19 1008.7
20220524201531 73 272 4.0 10.0 0.00 0.00 0.00 17 1008.9
20220524200033 70 303 1.0 8.0 0.00 0.00 0.00 20 1009.0
20220524194528 69 55 2.0 12.0 0.00 0.00 0.00 18 1009.1
20220524193007 68 117 5.0 8.0 0.00 0.00 0.00 20 1009.2
20220524191509 69 138 4.0 9.0 0.00 0.00 0.00 20 1009.3
20220524190058 68 135 5.0 9.0 0.00 0.00 0.00 20 1009.2
20220524184552 67 182 2.0 11.0 0.00 0.00 0.00 20 1009.4
20220524183050 67 111 3.0 9.0 0.00 0.00 0.00 20 1009.5
20220524181550 65 70 4.0 7.0 0.00 0.00 0.00 22 1009.8
20220524180104 65 84 3.0 8.0 0.00 0.00 0.00 21 1009.9
20220524174557 65 140 2.0 8.0 0.00 0.00 0.00 24 1010.0
20220524173054 64 137 3.0 6.0 0.00 0.00 0.00 23 1010.2